Location: Unspecified
(0.0000°N, 0.0000°E)
Time: 00:05:39
(UTC+00:00)

Envisat - Pass Details

Date: 16 January 2021
Orbit: 764 x 766 km, 98.1° (Epoch: 16 January)

Event Time Altitude Azimuth Distance (km) Brightness Sun altitude
Rises 05:20:46 0° 12° (NNE) 3,214 6.1 -11.4°
Reaches altitude 10° 05:23:03 10° 13° (NNE) 2,291 5.4 -10.9°
Maximum altitude 05:28:07 88° 103° (ESE) 768 3.0 -9.7°
Drops below altitude 10° 05:33:12 10° 191° (SSW) 2,301 5.6 -8.5°
Sets 05:35:30 0° 191° (SSW) 3,230 6.4 -8.0°
